Home > Weather > Lublin > Past weeks

Flag for Poland Past Weather in Lublin, Poland — Yesterday and Last 2 Weeks

Now
69 °F

Thunderstorms. Overcast.


Feels Like: 69 °F
Forecast: 67 / 86 °F
Wind: 2 mph from North

Location: Lublin Radawiec

Current Time: Jul 27, 2016 at 7:23:16 PM

Latest Report: Jul 27, 2016 at 6:00 PM


Visibility: 13 mi

Pressure: 29.97 "Hg

Humidity: 86%

Dew Point: 65 °F

Location of LublinLocation

Past Weather in Lublin — Graph

°F

Lublin Temperature Yesterday

Maximum temperature yesterday: 85 °F (at 12:00 PM)
Minimum temperature yesterday: 62 °F (at 5:00 AM)
Average temperature yesterday: 75 °F

High & Low Weather Summary for the Past Weeks

 TemperatureHumidityPressure
High86 °F (Jul 27, 2:00 PM)98% (Jul 14, 5:00 AM)30.19 "Hg (Jul 14, 5:00 AM)
Low49 °F (Jul 22, 5:00 AM)33% (Jul 21, 1:00 PM)29.61 "Hg (Jul 14, 3:00 PM)
Average66 °F74%29.99 "Hg
* Reported Jul 12 6:00 PM — Jul 27 6:00 PM, Lublin, Weather by CustomWeather, © 2016

Note: Actual official high and low records may vary slightly from our data, if they occured in-between our weather recording intervals... More about our weather records

Advertising

Lublin Weather History for the Previous 24 Hours

Scroll right to see more
 ConditionsComfort  
Time TempWeatherWind HumidityBarometerVisibility
6:00 PM
Wed, Jul 27
69 °FThunderstorms. Overcast.2 mph86%29.97 "Hg12 mi
5:00 PM69 °FThundershowers. Overcast.7 mph78%29.98 "Hg3 mi
4:00 PM83 °FThunderstorms. Overcast.2 mph52%29.94 "Hg11 mi
3:00 PM86 °FPartly sunny.3 mph44%29.94 "Hg12 mi
2:00 PM86 °FPartly sunny.3 mph41%29.96 "Hg9 mi
1:00 PM84 °FPartly sunny.3 mph46%29.98 "Hg8 mi
12:00 PM83 °FPartly sunny.3 mph50%30.01 "Hg9 mi
11:00 AM82 °FPartly sunny.2 mph52%30.01 "Hg11 mi
10:00 AM80 °FPartly sunny.2 mph57%30.01 "Hg9 mi
9:00 AM79 °FOvercast.2 mph59%30.01 "Hg9 mi
8:00 AM76 °FOvercast.1 mph66%30.02 "Hg9 mi
7:00 AM71 °FFog.No wind87%30.03 "Hg6 mi
6:00 AM63 °FFog.No wind96%30.05 "Hg3 mi
5:00 AM62 °FFog.1 mph97%30.05 "Hg2 mi
4:00 AM63 °FFog.1 mph93%30.05 "Hg2 mi
3:00 AM64 °FFog.No wind92%30.04 "Hg4 mi
2:00 AM66 °FPassing clouds.1 mph86%30.03 "Hg6 mi
1:00 AM66 °FPassing clouds.1 mph87%30.03 "Hg6 mi
12:00 AM68 °FPassing clouds.1 mph85%30.04 "Hg7 mi
11:00 PM
Tue, Jul 26
68 °FPassing clouds.1 mph84%30.04 "Hg7 mi
10:00 PM71 °FPassing clouds.No wind79%30.03 "Hg7 mi
9:00 PM74 °FPassing clouds.1 mph74%30.03 "Hg9 mi
8:00 PM76 °FPartly sunny.No wind64%30.02 "Hg12 mi
7:00 PM80 °FOvercast.1 mph57%29.99 "Hg12 mi
Weather by CustomWeather, © 2016

See weather overviewHow to use our weather pages